This is the latest recevied weather packets stored in our database for station/object K4IR. If no packets are shown the sender has not sent any weather packets the latest 10 day(s).
| Time | Temp. | Humidity | Pressure | Rain* | Wind** | Luminosity | Snow |
|---|---|---|---|---|---|---|---|
| 1777749957 | 13.89° C | 97% | 1009.7 hPa | 0 mm | - | 53 W/m² | - |
| 1777749358 | 13.89° C | 97% | 1009.9 hPa | 0 mm | - | 98 W/m² | - |
| 1777748753 | 13.89° C | 97% | 1010.3 hPa | 1.27 mm | - | 77 W/m² | - |
| 1777748150 | 13.89° C | 97% | 1010.1 hPa | 1.27 mm | - | 131 W/m² | - |
| 1777747549 | 13.89° C | 97% | 1010.3 hPa | 0.51 mm | - | 113 W/m² | - |
| 1777746948 | 13.89° C | 97% | 1010.6 hPa | 1.27 mm | - | 136 W/m² | - |
| 1777746345 | 13.89° C | 97% | 1011 hPa | 1.78 mm | - | 96 W/m² | - |
| 1777745745 | 13.89° C | 97% | 1010.7 hPa | 0.51 mm | - | 39 W/m² | - |
| 1777745140 | 13.89° C | 97% | 1010.6 hPa | 0 mm | - | 65 W/m² | - |
| 1777744537 | 14.44° C | 97% | 1010.3 hPa | 0.51 mm | - | 108 W/m² | - |
| 1777743937 | 14.44° C | 97% | 1010.5 hPa | 0.51 mm | - | 190 W/m² | - |
| 1777743336 | 13.89° C | 97% | 1010.5 hPa | 0 mm | - | 133 W/m² | - |
| 1777742731 | 14.44° C | 97% | 1010.2 hPa | 0.51 mm | - | 168 W/m² | - |
| 1777742129 | 13.89° C | 97% | 1010 hPa | 0.51 mm | - | 259 W/m² | - |
| 1777741529 | 13.89° C | 97% | 1010.9 hPa | 1.78 mm | - | 134 W/m² | - |
| 1777740928 | 13.89° C | 97% | 1011.1 hPa | 1.27 mm | - | 212 W/m² | - |
| 1777740326 | 13.89° C | 97% | 1011.4 hPa | 1.78 mm | - | 227 W/m² | - |
| 1777739724 | 13.89° C | 97% | 1012 hPa | 4.32 mm | - | 100 W/m² | - |
| 1777739123 | 14.44° C | 98% | 1011.5 hPa | 3.56 mm | - | 107 W/m² | - |
| 1777738522 | 13.89° C | 97% | 1011.7 hPa | 3.56 mm | - | 81 W/m² | - |
| 1777737923 | 13.89° C | 97% | 1011.6 hPa | 3.56 mm | - | 91 W/m² | - |
| 1777737319 | 13.89° C | 97% | 1011.7 hPa | 4.32 mm | - | 94 W/m² | - |
| 1777736716 | 13.89° C | 97% | 1011.6 hPa | 0.51 mm | - | 69 W/m² | - |
| 1777736055 | 13.89° C | 97% | 1011.4 hPa | 1.78 mm | - | 135 W/m² | - |
| 1777735455 | 14.44° C | 97% | 1011.6 hPa | 3.05 mm | - | 188 W/m² | - |
* Rain latest hour (hover to see other rain measurements)
** Current wind speed in m/s (hover to see current wind gust speed)